Vancouver Int'l Airport, British Columbia

Past 24 Hour Conditions

This table is a summary of hourly weather conditions for the past 24 hours. This summary includes the following parameters: temperature, humidity, dew point, wind speed and direction, air pressure, visibility and/or wind chill and humidex.
Date / Time
(PDT)
Conditions Temp (°C) Humidity (%) Dew Point (°C) Wind (km/h) Pressure (kPa) Visibility (km)
23 April 2014
10:00 Partly Cloudy 9 82 6 SE 26 101.2 24
9:00 Partly Cloudy 8 85 6 SE 26 101.2 19
8:00 Mostly Cloudy 8 87 6 SE 19 101.2 24
7:00 Mostly Cloudy 8 89 6 ESE 11 101.1 24
6:00 Mostly Cloudy 7   90 6 SE 18 101.1 24
5:00 Mostly Cloudy 7   90 6 ESE 17 101.1 19
4:00 Partly Cloudy 7   91 5 E 11 101.1 19
3:00 Mainly Clear 7   92 6 ENE 17 101.1 19
2:00 Partly Cloudy 7   90 6 ENE 14 101.1 19
1:00 Partly Cloudy 7   90 6 NE 11 101.1 19
00:00 Mostly Cloudy 7   91 6 ENE 12 101.0 19
22 April 2014
23:00 Light Rain 8 89 6 ENE 14 101.0 16
22:00 Light Rain 9 81 6 NW 4 101.1 19
21:00 Mostly Cloudy 9 79 6 WSW 10 101.1 24
20:00 Partly Cloudy 10 62 3 S 14 101.0 32
19:00 Mostly Cloudy 11 59 3 SSE 18 101.0 32
18:00 Mainly Sunny 12 54 3 S 18 101.0 48
17:00 Mainly Sunny 12 59 4 S 22 gust 35 101.1 48
16:00 Mainly Sunny 14   47 3 SSE 22 gust 34 101.1 48
15:00 Mainly Sunny 14   46 2 S 14 101.1 48
14:00 Mainly Sunny 12 45 1 SW 12 101.1 48
13:00 Mainly Sunny 11 54 2 SW 11 101.1 32
12:00 Partly Cloudy 11 63 4 SW 11 101.1 32
11:00 Mainly Sunny 9 69 4 SSW 17 101.0 32
10:00 Partly Cloudy 10 71 5 SW 27 101.0 48
N/A
Not available
 ↑ 
Highest temperature
 ↓ 
Lowest temperature

If you require additional historical weather information, please visit Climate Data Online.